This is the latest recevied weather packets stored in our database for station/object N3WMC. If no packets are shown the sender has not sent any weather packets the latest 10 day(s).
| Time | Temp. | Humidity | Pressure | Rain* | Wind** | Luminosity | Snow |
|---|---|---|---|---|---|---|---|
| 1778171937 | 16.11° C | 40% | 1012.3 hPa | 0 mm | - | 852 W/m² | - |
| 1778171634 | 15.56° C | 40% | 1012.3 hPa | 0 mm | - | 771 W/m² | - |
| 1778171331 | 15.56° C | 40% | 1012.2 hPa | 0 mm | - | 786 W/m² | - |
| 1778171026 | 15.56° C | 40% | 1012.4 hPa | 0 mm | - | 786 W/m² | - |
| 1778170724 | 15° C | 40% | 1012.4 hPa | 0 mm | - | 786 W/m² | - |
| 1778170420 | 15.56° C | 41% | 1012.4 hPa | 0 mm | - | 239 W/m² | - |
| 1778170117 | 14.44° C | 43% | 1012.6 hPa | 0 mm | - | 644 W/m² | - |
| 1778169812 | 14.44° C | 42% | 1012.5 hPa | 0 mm | - | 175 W/m² | - |
| 1778169509 | 15° C | 43% | 1012.6 hPa | 0 mm | - | 786 W/m² | - |
| 1778169205 | 13.33° C | 44% | 1012.9 hPa | 0 mm | - | 737 W/m² | - |
| 1778168902 | 13.89° C | 45% | 1013 hPa | 0 mm | - | 133 W/m² | - |
| 1778168599 | 14.44° C | 43% | 1013.1 hPa | 0 mm | - | 429 W/m² | - |
| 1778168296 | 15° C | 42% | 1013 hPa | 0 mm | - | 815 W/m² | - |
| 1778167992 | 14.44° C | 40% | 1013.3 hPa | 0 mm | - | 751 W/m² | - |
| 1778167689 | 13.89° C | 44% | 1013 hPa | 0 mm | - | 680 W/m² | - |
| 1778167385 | 13.89° C | 45% | 1013.2 hPa | 0 mm | - | 178 W/m² | - |
| 1778167081 | 14.44° C | 45% | 1013.3 hPa | 0 mm | - | 170 W/m² | - |
| 1778166777 | 14.44° C | 44% | 1013.3 hPa | 0 mm | - | 702 W/m² | - |
| 1778166475 | 13.33° C | 47% | 1013.3 hPa | 0 mm | - | 427 W/m² | - |
| 1778166171 | 13.33° C | 47% | 1013.3 hPa | 0 mm | - | 131 W/m² | - |
| 1778165867 | 13.33° C | 45% | 1013.5 hPa | 0 mm | - | 434 W/m² | - |
| 1778165564 | 13.33° C | 47% | 1013.7 hPa | 0 mm | - | 122 W/m² | - |
| 1778165261 | 13.33° C | 50% | 1013.7 hPa | 0 mm | - | 552 W/m² | - |
| 1778164959 | 13.89° C | 47% | 1013.5 hPa | 0 mm | - | 249 W/m² | - |
| 1778164655 | 13.89° C | 46% | 1013.8 hPa | 0 mm | - | 582 W/m² | - |
* Rain latest hour (hover to see other rain measurements)
** Current wind speed in m/s (hover to see current wind gust speed)